[[{"header":{"parameterUnit":"m.s-1","parameterCategory":1,"la1":30.2991,"la2":30.254,"lo1":-89.0895,"lo2":-89.0444,"dy":0.0017,"dx":0.0017,"nx":28,"ny":28,"refTime":"2024-07-07T09:00:00:Z","depth":0,"parameterNumber":2,"parameterNumberName":"U-component_of_WINDS"},"data":[0,0,0,0,0,0,0,0,0,0,0,0,0,0,0,0,0,0,0,0,0,0,0,0,0,0,0,0,0,0,0,0,0,0,0,0,0,0,0,0,0,0,0,0,0,0,0,0,0,0,0,0,0,0,0,0,0,0,-1.1114,-1.1114,0,-1.1113,-1.1113,-1.1113,-1.1098,-1.1097,-1.1097,-1.1097,-1.1097,-1.1097,-1.1097,0,0,0,0,0,0,0,0,0,0,0,0,0,-1.1103,-1.1103,-1.1114,-1.1114,-1.1114,-1.1113,-1.1113,-1.1113,-1.1098,-1.1097,-1.1097,-1.1097,-1.1097,-1.1097,-1.1097,0,0,0,0,0,0,0,0,0,0,0,0,0,-1.1105,-1.1103,-1.1114,-1.1106,-1.1105,-1.1113,-1.1113,-1.1113,-1.1098,-1.1097,-1.1097,-1.1096,-1.1096,-1.1097,-1.1098,-1.1112,0,0,-1.1099,-1.1099,0,0,0,0,0,0,0,0,-1.1105,-1.1106,-1.1107,-1.1107,-1.1106,-1.1105,-1.1109,-1.1113,-1.1098,-1.1101,-1.1097,-1.1096,-1.11,-1.11,-1.1101,-1.1112,-1.1112,-1.1099,-1.11,-1.11,-1.11,0,0,0,0,0,0,0,-1.1105,-1.1106,-1.1113,-1.1107,-1.1106,-1.1103,-1.1103,-1.111,-1.1104,-1.1101,-1.1099,-1.11,-1.1099,-1.1101,-1.1101,-1.1112,-1.1099,-1.11,-1.11,-1.11,-1.1136,-1.1137,0,0,0,0,0,0,-1.1106,-1.1106,-1.1113,-1.1113,-1.1104,-1.1104,-1.1103,-1.1106,-1.1104,-1.1103,-1.11,-1.1099,-1.11,-1.1101,-1.1101,-1.1118,-1.11,-1.11,-1.1101,-1.1135,-1.1136,-1.1137,0,0,0,0,0,0,-1.1106,-1.1107,-1.1113,-1.1109,-1.111,-1.1104,-1.1107,-1.1106,-1.1107,-1.1103,-1.1102,-1.1102,-1.11,-1.11,-1.111,-1.1118,-1.1101,-1.1101,-1.1135,-1.1136,-1.1137,-1.1153,0,0,0,0,0,0,-1.1105,-1.1107,-1.1112,-1.1109,-1.111,-1.1122,-1.1108,-1.1106,-1.1108,-1.1107,-1.1105,-1.1104,-1.1099,-1.1109,-1.111,-1.1119,-1.1101,-1.1134,-1.1135,-1.1136,-1.1152,-1.1155,-1.1157,0,0,0,0,0,-1.1105,-1.1117,-1.1112,-1.1113,-1.1117,-1.1122,-1.1123,-1.1116,-1.1109,-1.1114,-1.1112,-1.1104,-1.1117,-1.111,-1.1111,-1.112,-1.1133,-1.1135,-1.1136,-1.1151,-1.1154,-1.1157,0,0,0,0,0,0,-1.1121,-1.1116,-1.1111,-1.1123,-1.1123,-1.112,-1.1126,-1.112,-1.1123,-1.1121,-1.1114,-1.1113,-1.1124,-1.1123,-1.1115,-1.1135,-1.1124,-1.1126,-1.1135,-1.1138,-1.114,-1.114,-1.1102,0,0,0,0,0,-1.1126,-1.113,-1.1126,-1.1137,-1.1137,-1.1132,-1.1134,-1.1129,-1.1129,-1.1129,-1.1127,-1.1128,-1.1132,-1.1135,-1.1139,-1.1152,-1.1151,-1.1159,-1.1161,-1.1163,-1.1165,-1.1172,-1.1175,-1.1142,-1.1142,-1.1141,0,0,-1.1136,-1.1134,-1.1137,-1.114,-1.1139,-1.1145,-1.1132,-1.1138,-1.1142,-1.113,-1.1139,-1.1138,-1.1138,-1.1149,-1.1154,-1.1149,-1.1174,-1.1165,-1.1167,-1.1167,-1.1174,-1.1177,-1.118,-1.1142,-1.1142,-1.1142,0,0,-1.1156,-1.1155,-1.1164,-1.1164,-1.1163,-1.116,-1.1162,-1.116,-1.1158,-1.1167,-1.1158,-1.1163,-1.117,-1.1171,-1.1172,-1.1194,-1.1187,-1.1195,-1.1208,-1.1215,-1.1218,-1.122,-1.1228,-1.1231,-1.1197,-1.1197,-1.1197,0,-1.1169,-1.1176,-1.1169,-1.1176,-1.1177,-1.1167,-1.1176,-1.1176,-1.1177,-1.1179,-1.1172,-1.1182,-1.1181,-1.1192,-1.1198,-1.1199,-1.1201,-1.1195,-1.1218,-1.122,-1.1222,-1.123,-1.1232,-1.1198,-1.1198,-1.1197,-1.1197,0,-1.1192,-1.1197,-1.1204,-1.1205,-1.1207,-1.1215,-1.1209,-1.1213,-1.1208,-1.1205,-1.1214,-1.1213,-1.1216,-1.1219,-1.1214,-1.123,-1.1226,-1.1219,-1.1208,-1.1227,-1.1233,-1.1236,-1.1199,-1.1199,-1.1198,-1.1198,0,0,-1.1222,-1.1219,-1.1222,-1.1222,-1.1221,-1.1225,-1.1233,-1.1236,-1.1239,-1.124,-1.1246,-1.1253,-1.1246,-1.1247,-1.1243,-1.1249,-1.1266,-1.1241,-1.1241,-1.1246,-1.1283,-1.1289,-1.1292,-1.1262,-1.1262,-1.1263,-1.1283,0,-1.1242,-1.1254,-1.1248,-1.1261,-1.1266,-1.1257,-1.1263,-1.1264,-1.1261,-1.1265,-1.1263,-1.1268,-1.1259,-1.126,-1.1265,-1.1263,-1.1274,-1.1261,-1.1268,-1.1268,-1.1268,-1.1295,-1.1301,-1.132,-1.1286,-1.1286,-1.1287,0,-1.1267,-1.1269,-1.1283,-1.1281,-1.1283,-1.1288,-1.1291,-1.1295,-1.1295,-1.1293,-1.1295,-1.1289,-1.1296,-1.1286,-1.1296,-1.1288,-1.129,-1.1289,-1.129,-1.129,-1.1278,-1.1296,-1.1326,-1.1329,-1.1291,-1.129,-1.129,0,-1.1288,-1.1294,-1.1303,-1.1304,-1.1302,-1.1306,-1.1305,-1.1305,-1.1307,-1.1309,-1.1311,-1.1314,-1.1316,-1.1319,-1.1314,-1.1307,-1.1325,-1.1314,-1.1323,-1.1324,-1.1327,-1.1327,-1.1358,-1.1329,-1.1329,-1.1329,-1.1329,0,-1.1311,-1.132,-1.1312,-1.1318,-1.1327,-1.1321,-1.133,-1.1329,-1.1328,-1.1334,-1.1326,-1.1331,-1.1324,-1.1329,-1.1325,-1.1334,-1.1335,-1.1334,-1.1333,-1.1334,-1.1334,-1.1336,-1.1334,-1.133,-1.133,-1.133,-1.1329,0,-1.1336,-1.1332,-1.1341,-1.1338,-1.1337,-1.1345,-1.1342,-1.1347,-1.1345,-1.1351,-1.1352,-1.1348,-1.1353,-1.1349,-1.1353,-1.1351,-1.1363,-1.136,-1.1363,-1.1362,-1.1372,-1.1371,-1.1405,-1.1409,-1.1377,-1.1377,-1.1378,0,-1.1351,-1.1358,-1.1356,-1.1358,-1.1358,-1.1363,-1.1365,-1.1359,-1.1361,-1.1362,-1.1367,-1.1371,-1.1374,-1.1383,-1.138,-1.1384,-1.1381,-1.1392,-1.1381,-1.1383,-1.1381,-1.1381,-1.1381,-1.1395,-1.1395,-1.1395,-1.1396,0,-1.1379,-1.1376,-1.1379,-1.1382,-1.1384,-1.1386,-1.1387,-1.139,-1.1384,-1.1387,-1.1392,-1.1394,-1.1399,-1.1403,-1.1406,-1.1406,-1.14,-1.1399,-1.1401,-1.1403,-1.1405,-1.1404,-1.1369,-1.1398,-1.1398,-1.1398,-1.1398,-1.1398,-1.1399,-1.1404,-1.1404,-1.1408,-1.1408,-1.1409,-1.1414,-1.1411,-1.1415,-1.1418,-1.1414,-1.142,-1.1421,-1.1424,-1.1424,-1.1429,-1.1424,-1.1428,-1.1428,-1.1429,-1.1431,-1.1404,-1.1429,-1.1429,-1.1429,-1.1429,-1.1429,0,-1.1426,-1.1425,-1.1429,-1.143,-1.1434,-1.1427,-1.1428,-1.1431,-1.1437,-1.1437,-1.144,-1.1446,-1.145,-1.1448,-1.1451,-1.1456,-1.1453,-1.1457,-1.1456,-1.1456,-1.1435,-1.1432,-1.1459,-1.1459,-1.1459,-1.1459,-1.1459,-1.1459,-1.144,-1.1449,-1.1446,-1.1455,-1.1454,-1.1459,-1.146,-1.1461,-1.1462,-1.1468,-1.1472,-1.147,-1.147,-1.1473,-1.1477,-1.1476,-1.1478,-1.1483,-1.1481,-1.1461,-1.1458,-1.1455,-1.1453,-1.1483,-1.1483,-1.1502,-1.1502,-1.1502]},{"header":{"parameterUnit":"m.s-1","parameterCategory":1,"la1":30.2991,"la2":30.254,"lo1":-89.0895,"lo2":-89.0444,"dy":0.0017,"dx":0.0017,"nx":28,"ny":28,"refTime":"2024-07-07T09:00:00:Z","depth":0,"parameterNumber":3,"parameterNumberName":"V-component_of_WINDS"},"data":[0,0,0,0,0,0,0,0,0,0,0,0,0,0,0,0,0,0,0,0,0,0,0,0,0,0,0,0,0,0,0,0,0,0,0,0,0,0,0,0,0,0,0,0,0,0,0,0,0,0,0,0,0,0,0,0,0,0,4.9961,4.9962,0,5.0003,5.0003,5.0004,4.9927,4.9924,4.9921,4.9919,4.9959,4.9962,4.9966,0,0,0,0,0,0,0,0,0,0,0,0,0,4.9811,4.9814,4.9961,4.9962,4.9962,5.0003,5.0003,5.0004,4.9927,4.9924,4.9921,4.9918,4.9958,4.9962,4.9966,0,0,0,0,0,0,0,0,0,0,0,0,0,4.9867,4.9815,4.9961,4.9929,4.9926,5.0003,5.0003,5.0004,4.9928,4.9924,4.992,4.9916,4.9957,4.9962,4.9967,5.0076,0,0,4.9983,4.9985,0,0,0,0,0,0,0,0,4.9864,4.9872,4.9933,4.9931,4.9928,4.9956,4.9965,5.0028,4.9929,4.9927,4.9919,4.9914,4.9961,4.9965,4.9982,5.0078,5.0079,4.9983,4.9986,4.9988,4.999,0,0,0,0,0,0,0,4.986,4.987,4.9978,4.9934,4.9931,4.9911,4.9915,4.9977,4.9965,4.9927,4.9921,4.9928,4.9959,4.9977,4.9982,5.008,4.9983,4.9988,4.9991,4.9993,5.0265,5.0269,0,0,0,0,0,0,4.986,4.9867,4.9976,4.9979,4.9886,4.9917,4.9921,4.9951,4.9964,4.9962,4.9931,4.9924,4.997,4.9976,4.9983,5.0109,4.9988,4.9993,4.9996,5.0261,5.0266,5.027,0,0,0,0,0,0,4.9857,4.9871,4.9975,4.9922,4.9933,4.9923,4.9958,4.9954,4.9971,4.9967,4.9964,4.9952,4.9967,4.9976,5.0053,5.011,4.9996,5.0,5.0256,5.0262,5.0268,5.0365,0,0,0,0,0,0,4.9854,4.987,4.9913,4.9923,4.9936,5.0045,4.9961,4.9957,4.9981,4.9972,4.9986,4.9984,4.9965,5.0046,5.0058,5.0115,5.0004,5.025,5.0259,5.0266,5.0356,5.0373,5.0388,0,0,0,0,0,4.9848,4.9938,4.9915,4.9929,4.9989,5.0049,5.0056,5.0032,4.9986,5.0027,5.0024,4.9984,5.0102,5.0054,5.0068,5.0127,5.0247,5.0256,5.0265,5.0349,5.037,5.0388,0,0,0,0,0,0,4.9934,4.9939,4.9914,5.001,5.003,5.0035,5.0087,5.0056,5.0088,5.0078,5.0047,5.0051,5.0133,5.0138,5.0084,5.0232,5.0166,5.0179,5.0226,5.0245,5.0261,5.0257,5.0009,0,0,0,0,0,4.9965,5.0013,5.0015,5.0099,5.011,5.0098,5.0122,5.0103,5.0121,5.0129,5.0131,5.015,5.0191,5.0219,5.0256,5.0357,5.0357,5.0404,5.042,5.0433,5.0444,5.0495,5.0515,5.03,5.03,5.03,0,0,5.0027,5.0036,5.0069,5.0117,5.0129,5.0179,5.0105,5.0161,5.0197,5.0137,5.0209,5.0212,5.0231,5.032,5.0359,5.0326,5.0503,5.0445,5.0455,5.0459,5.0506,5.0526,5.0545,5.0307,5.0305,5.0304,0,0,5.0166,5.0179,5.025,5.0264,5.0284,5.0275,5.0292,5.0303,5.0302,5.0375,5.033,5.0372,5.0444,5.0458,5.0475,5.0619,5.0582,5.0632,5.0714,5.0764,5.0781,5.0796,5.0845,5.0863,5.0643,5.0643,5.0643,0,5.0241,5.0315,5.029,5.0349,5.037,5.0319,5.0389,5.0404,5.0435,5.0451,5.0414,5.0502,5.0511,5.0601,5.0636,5.0652,5.0669,5.0629,5.0781,5.0795,5.0809,5.0855,5.0874,5.0649,5.0648,5.0648,5.0647,0,5.0405,5.0457,5.0512,5.0544,5.0571,5.0636,5.0618,5.0649,5.0627,5.0621,5.0694,5.0703,5.0741,5.0761,5.074,5.0848,5.0827,5.0786,5.0719,5.0835,5.0878,5.0896,5.0657,5.0655,5.0653,5.0652,0,0,5.0599,5.0616,5.0636,5.0649,5.0667,5.0706,5.0767,5.0804,5.083,5.0854,5.0903,5.0965,5.0926,5.0946,5.0925,5.097,5.108,5.0923,5.0923,5.095,5.1196,5.1225,5.1247,5.1056,5.106,5.1062,5.1194,0,5.0736,5.0842,5.082,5.0923,5.0969,5.0921,5.0973,5.0989,5.0985,5.1023,5.1018,5.1061,5.1009,5.102,5.1062,5.1058,5.1129,5.1048,5.1099,5.1102,5.1094,5.1269,5.13,5.1425,5.1211,5.1214,5.1216,0,5.0909,5.0938,5.1047,5.1055,5.1074,5.1122,5.1153,5.1191,5.1207,5.1201,5.1222,5.1193,5.1251,5.1186,5.1265,5.1211,5.1231,5.1232,5.1236,5.1238,5.1164,5.1274,5.1464,5.1482,5.1242,5.124,5.1238,0,5.1037,5.1104,5.1176,5.1189,5.1202,5.1236,5.1243,5.1256,5.1279,5.1306,5.1321,5.1355,5.1373,5.1399,5.1379,5.1333,5.1461,5.1394,5.1455,5.1456,5.1483,5.1481,5.1676,5.15,5.1499,5.1499,5.1499,0,5.119,5.1257,5.1233,5.1278,5.1351,5.1325,5.1398,5.1399,5.141,5.1453,5.1413,5.1454,5.1426,5.1464,5.1449,5.1516,5.1525,5.152,5.1514,5.1522,5.1523,5.1533,5.1523,5.1504,5.1503,5.1502,5.1501,0,5.1344,5.1332,5.1407,5.1413,5.1416,5.1469,5.1473,5.1514,5.1507,5.1561,5.1572,5.1561,5.1603,5.1586,5.1631,5.1621,5.1705,5.169,5.17,5.1695,5.1757,5.175,5.1964,5.199,5.1799,5.18,5.1802,0,5.1442,5.1493,5.1504,5.153,5.1539,5.1582,5.1605,5.1581,5.1606,5.1628,5.1665,5.1704,5.1734,5.1804,5.1798,5.1832,5.1816,5.1888,5.182,5.1826,5.1814,5.181,5.1814,5.1901,5.1903,5.1905,5.1907,0,5.1616,5.1607,5.1642,5.1675,5.1704,5.1729,5.175,5.1773,5.175,5.178,5.1823,5.1846,5.1892,5.193,5.196,5.1965,5.1932,5.1928,5.1944,5.1951,5.1954,5.1951,5.1735,5.1923,5.1922,5.192,5.1919,5.1919,5.1744,5.1785,5.1799,5.1839,5.1853,5.1873,5.1911,5.1908,5.1943,5.1979,5.1962,5.2011,5.2024,5.2061,5.2071,5.2108,5.2079,5.2103,5.2108,5.2114,5.2121,5.195,5.2114,5.2113,5.2113,5.2112,5.2112,0,5.1913,5.192,5.1957,5.1988,5.2019,5.1986,5.2007,5.2034,5.2078,5.2094,5.2124,5.2172,5.2209,5.2207,5.224,5.227,5.2255,5.2279,5.2276,5.2277,5.2146,5.2128,5.2291,5.2291,5.2291,5.229,5.229,5.229,5.2006,5.2074,5.2066,5.2139,5.2145,5.2193,5.2207,5.2225,5.2237,5.2293,5.2323,5.2322,5.2329,5.2363,5.2395,5.2393,5.2406,5.2436,5.2428,5.2305,5.2287,5.227,5.2253,5.2439,5.2439,5.2556,5.2557,5.2558]}]]